Poplar Bluff, MO

2:55 AM CST on February 21, 2017 (GMT -0600)
Poplar Bluff Municipal

Weather History for KPOF - September, 2013

Change the Weather History Date:

Saturday, September 14, 2013

  Actual Average Record
Temperature  
Mean Temperature 65 °F -  
Max Temperature 78 °F 83 °F 101 °F (1939)
Min Temperature 52 °F 61 °F 42 °F (1964)
Growing Degree Days 15 (Base 50)    
Moisture  
Dew Point 51 °F    
Average Humidity 65    
Maximum Humidity 87    
Minimum Humidity 35    
Precipitation  
Precipitation 0.00 in - - ()
Sea Level Pressure  
Sea Level Pressure 30.08 in    
Wind  
Wind Speed 4 mph (NE)    
Max Wind Speed 7 mph    
Max Gust Speed -    
Visibility 10 miles    
Events      
Averages and records for this station are not official NWS values.
T = Trace of Precipitation, MM = Missing Value Source: NWS Daily Summary

Daily Weather History Graph

Daily Weather History Graph

Search for Another Location

Airport or City:

Trip Planner

Search our weather history database for the weather conditions in past years. The results will help you decide how hot, cold, wet, or windy it might be!

Date:

Astronomy

Sep. 14, 2013 Rise Set
Actual Time 6:42 AM CDT 7:09 PM CDT
Civil Twilight 6:16 AM CDT 7:35 PM CDT
Nautical Twilight 5:46 AM CDT 8:06 PM CDT
Astronomical Twilight 5:15 AM CDT 8:37 PM CDT
Moon 3:45 PM CDT (9/14) 1:21 AM CDT (9/14)
Length of Visible Light 13h 18m
Length of Day
12h 26m
Waxing Gibbous, 72% of the Moon is Illuminated
Sep 14
Waxing Gibbous
Sep 19
Full
Sep 26
Last Quarter
Oct 4
New
Oct 11
First Quarter

Hourly Weather History & Observations

Time (CDT) Temp. Dew Point Humidity Pressure Visibility Wind Dir Wind Speed Gust Speed Precip Events Conditions
12:53 AM 60.1 °F 52.0 °F 75% 30.06 in 10.0 mi NNE 4.6 mph - N/A   Clear
1:53 AM 59.0 °F 51.1 °F 75% 30.06 in 10.0 mi NNE 6.9 mph - N/A   Clear
2:53 AM 57.9 °F 50.0 °F 75% 30.06 in 10.0 mi NNE 5.8 mph - N/A   Clear
3:53 AM 55.9 °F 50.0 °F 80% 30.06 in 10.0 mi NNE 3.5 mph - N/A   Clear
4:53 AM 55.0 °F 48.9 °F 80% 30.06 in 10.0 mi North 3.5 mph - N/A   Clear
5:53 AM 54.0 °F 48.9 °F 83% 30.08 in 10.0 mi North 3.5 mph - N/A   Clear
6:53 AM 52.0 °F 48.0 °F 86% 30.09 in 10.0 mi North 3.5 mph - N/A   Clear
7:53 AM 59.0 °F 51.1 °F 75% 30.12 in 10.0 mi Calm Calm - N/A   Clear
8:53 AM 62.1 °F 51.1 °F 67% 30.13 in 10.0 mi NE 5.8 mph - N/A   Clear
9:53 AM 66.0 °F 51.1 °F 59% 30.15 in 10.0 mi ESE 4.6 mph - N/A   Clear
10:53 AM 69.1 °F 48.0 °F 47% 30.15 in 10.0 mi Calm Calm - N/A   Clear
11:53 AM 71.1 °F 48.9 °F 45% 30.14 in 10.0 mi ENE 5.8 mph - N/A   Clear
12:53 PM 73.9 °F 46.9 °F 38% 30.11 in 10.0 mi Variable 4.6 mph - N/A   Clear
1:53 PM 75.0 °F 48.9 °F 40% 30.08 in 10.0 mi East 5.8 mph - N/A   Clear
2:53 PM 75.9 °F 48.9 °F 38% 30.06 in 10.0 mi Variable 4.6 mph - N/A   Clear
3:53 PM 77.0 °F 50.0 °F 39% 30.04 in 10.0 mi Variable 5.8 mph - N/A   Clear
4:53 PM 78.1 °F 48.0 °F 35% 30.03 in 10.0 mi NE 3.5 mph - N/A   Clear
5:53 PM 75.9 °F 53.1 °F 45% 30.04 in 10.0 mi NE 3.5 mph - N/A   Clear
6:53 PM 68.0 °F 55.9 °F 65% 30.04 in 10.0 mi Calm Calm - N/A   Clear
7:53 PM 63.0 °F 55.0 °F 75% 30.05 in 10.0 mi Calm Calm - N/A   Clear
8:53 PM 59.0 °F 54.0 °F 83% 30.06 in 10.0 mi Calm Calm - N/A   Clear
9:53 PM 57.0 °F 52.0 °F 83% 30.06 in 10.0 mi Calm Calm - N/A   Clear
10:53 PM 55.9 °F 52.0 °F 87% 30.06 in 10.0 mi Calm Calm - N/A   Clear
11:53 PM 55.0 °F 51.1 °F 86% 30.06 in 10.0 mi Calm Calm - N/A   Clear